N2YJJ-2 Weather Reports


Display with metric or nautical units.
time (UTC)temp
F
wind
direction
speed
MPH
gust
MPH
rain 1hr
in
rain 24hr
in
rain mn
in
humidity
%
barometer
mb
20260510115003 45 239 0.0 7.0 0.00 0.29 0.04 92 1019.0
20260510113003 44 345 0.0 6.0 0.00 0.29 0.04 94 1018.6
20260510111002 43 252 0.0 2.0 0.00 0.29 0.04 97 1018.3
20260510104003 42 281 0.0 1.0 0.00 0.29 0.04 96 1017.5
20260510103003 41 281 0.0 0.0 0.00 0.29 0.04 95 1017.4
20260510102003 42 281 0.0 0.0 0.00 0.29 0.04 94 1017.0
20260510101002 42 281 0.0 0.0 0.00 0.29 0.04 94 1016.7
20260510095002 43 281 0.0 2.0 0.00 0.29 0.04 95 1016.7
20260510094002 44 281 0.0 3.0 0.00 0.29 0.04 95 1016.6
20260510093003 44 286 1.0 3.0 0.00 0.29 0.04 95 1016.3
20260510092003 45 227 0.0 2.0 0.00 0.29 0.04 96 1016.0
20260510091004 45 227 0.0 1.0 0.00 0.29 0.04 96 1015.7
20260510090003 46 227 0.0 0.0 0.00 0.29 0.04 97 1015.6
20260510084003 46 227 0.0 2.0 0.01 0.29 0.04 96 1015.4
20260510083003 46 248 0.0 0.0 0.02 0.29 0.04 96 1015.4
20260510082003 46 248 0.0 0.0 0.03 0.29 0.04 96 1015.0
20260510081003 46 248 0.0 1.0 0.04 0.29 0.04 96 1015.3
20260510080003 46 248 1.0 1.0 0.04 0.29 0.04 96 1015.4
20260510075004 46 248 0.0 0.0 0.03 0.28 0.03 96 1014.9
20260510074003 46 248 0.0 0.0 0.03 0.28 0.03 95 1015.1
20260510072005 47 248 0.0 0.0 0.01 0.26 0.01 96 1014.5
20260510071003 48 248 0.0 0.0 0.00 0.25 0.00 97 1014.6
20260510070003 48 248 0.0 0.0 0.00 0.25 0.00 97 1014.2
20260510065003 48 248 0.0 0.0 0.00 0.25 0.00 97 1014.1
20260510064003 49 248 0.0 0.0 0.00 0.25 0.00 97 1014.0
20260510062003 50 248 0.0 0.0 0.00 0.25 0.00 97 1013.9
20260510055003 51 248 0.0 1.0 0.00 0.25 0.00 98 1013.8
20260510054003 51 248 0.0 0.0 0.00 0.25 0.00 98 1013.8
20260510052003 50 217 1.0 2.0 0.00 0.25 0.00 98 1013.7
20260510051004 50 270 1.0 2.0 0.00 0.25 0.00 98 1013.5
20260510050005 49 270 0.0 2.0 0.00 0.25 0.00 97 1013.4
20260510045003 49 252 0.0 0.0 0.00 0.25 0.00 96 1013.3
20260510044004 49 252 0.0 0.0 0.00 0.25 0.00 96 1013.0
20260510043003 50 252 0.0 0.0 0.00 0.25 0.00 96 1012.7
20260510042003 50 252 0.0 0.0 0.00 0.25 0.00 96 1012.5
20260510041004 50 252 0.0 1.0 0.00 0.25 0.00 96 1012.3
20260510040003 51 195 0.0 3.0 0.00 0.25 0.00 96 1012.1
20260510035003 51 158 0.0 2.0 0.00 0.25 0.25 96 1011.8
20260510034003 51 206 1.0 2.0 0.00 0.25 0.25 96 1011.8
20260510033003 51 206 0.0 2.0 0.00 0.25 0.25 95 1011.8
20260510032003 51 233 0.0 5.0 0.00 0.25 0.25 95 1011.9
20260510031003 52 267 1.0 3.0 0.00 0.25 0.25 96 1011.7
20260510030004 51 234 1.0 3.0 0.00 0.25 0.25 96 1011.7
20260510024003 51 250 0.0 3.0 0.00 0.25 0.25 95 1011.5
20260510023004 51 235 1.0 3.0 0.00 0.25 0.25 94 1011.3
20260510022004 52 249 2.0 3.0 0.00 0.25 0.25 94 1011.1
20260510021003 52 229 1.0 5.0 0.00 0.25 0.25 94 1011.1
20260510015003 52 225 2.0 6.0 0.00 0.25 0.25 94 1011.2
20260510014004 52 231 3.0 9.0 0.00 0.25 0.25 94 1011.0
20260510013003 52 241 2.0 5.0 0.00 0.25 0.25 94 1010.9
20260510012003 52 250 2.0 7.0 0.00 0.25 0.25 94 1010.8
20260510011003 52 219 2.0 3.0 0.00 0.25 0.25 94 1010.6
20260510005003 52 199 2.0 3.0 0.00 0.25 0.25 94 1010.1
20260510003004 52 222 1.0 5.0 0.01 0.25 0.25 94 1010.0
20260510001004 52 200 1.0 5.0 0.06 0.25 0.25 94 1010.1
20260510000003 52 199 2.0 5.0 0.25 0.25 0.25 94 1009.7
20260509235003 52 259 3.0 7.0 0.25 0.25 0.25 93 1009.3
20260509234003 52 204 2.0 3.0 0.24 0.24 0.24 92 1010.2
20260509233004 53 234 1.0 7.0 0.24 0.24 0.24 91 1010.3
20260509232005 54 254 2.0 9.0 0.23 0.23 0.23 88 1010.4
20260509230004 63 329 3.0 7.0 0.00 0.00 0.00 77 1009.9
20260509225004 63 241 1.0 2.0 0.00 0.00 0.00 75 1007.9
20260509224004 64 163 1.0 3.0 0.00 0.00 0.00 74 1007.8
20260509223004 64 173 1.0 2.0 0.00 0.00 0.00 73 1007.9
20260509221004 64 209 1.0 7.0 0.00 0.00 0.00 72 1008.1
20260509220004 64 219 0.0 3.0 0.00 0.00 0.00 70 1008.3
20260509215005 64 211 2.0 3.0 0.00 0.00 0.00 69 1008.4
20260509214004 65 234 2.0 3.0 0.00 0.00 0.00 69 1008.4
20260509213004 65 225 2.0 7.0 0.00 0.00 0.00 68 1008.4
20260509212004 65 210 2.0 5.0 0.00 0.00 0.00 67 1008.7
20260509211004 66 276 1.0 6.0 0.00 0.00 0.00 67 1008.8
20260509210004 66 248 2.0 7.0 0.00 0.00 0.00 66 1008.9
20260509205005 66 249 2.0 3.0 0.00 0.00 0.00 66 1008.8
20260509204004 66 271 3.0 8.0 0.00 0.00 0.00 65 1008.8
20260509203004 66 228 2.0 5.0 0.00 0.00 0.00 63 1009.0
20260509202005 68 253 2.0 6.0 0.00 0.00 0.00 60 1008.8
20260509201004 68 263 2.0 7.0 0.00 0.00 0.00 61 1008.9
20260509195004 67 281 2.0 14.0 0.00 0.00 0.00 65 1009.1
20260509194004 67 224 5.0 12.0 0.00 0.00 0.00 62 1009.3
20260509193004 67 208 3.0 8.0 0.00 0.00 0.00 63 1009.5
20260509192004 67 217 2.0 8.0 0.00 0.00 0.00 63 1009.6
20260509191004 67 241 4.0 9.0 0.00 0.00 0.00 62 1009.7
20260509190005 68 167 2.0 10.0 0.00 0.00 0.00 61 1009.8
20260509185004 69 219 2.0 10.0 0.00 0.00 0.00 60 1009.7